Location: Sebastopol
(38.4021°N, 122.8239°W)
Time: 15:08:30
(UTC+00:00)

COSMO-SKYMED 1 - Pass Details

Date: 29 October 2020
Orbit: 621 x 623 km, 97.9° (Epoch: 01 December)

Event Time Altitude Azimuth Distance (km) Brightness Sun altitude
Rises 13:20:58 0° 163° (SSE) 2,889 6.3 -15.1°
Reaches altitude 10° 13:23:09 10° 163° (SSE) 1,987 5.5 -14.6°
Maximum altitude 13:27:29 80° 76° (ENE) 638 2.7 -13.8°
Drops below altitude 10° 13:31:50 10° 350° (N) 2,001 5.0 -13.0°
Sets 13:34:02 0° 349° (N) 2,912 5.8 -12.5°
